Flag for Poland Weather past 2 weeks in Wroclaw, Poland

Now
36 °F

Clear.


Feels Like: 31 °F
Forecast: 37 / 49 °F
Wind: 6 mph from South

Location: Wroclaw Ii

Current Time: Mar 1, 2015 at 2:32:19 AM

Latest Report: Mar 1, 2015 at 2:00 AM


Visibility: 10 mi

Pressure: 30.01 "Hg

Humidity: 87%

Dew point: 32 °F

Location of WroclawLocation

Historic Weather in Wroclaw — Graph

°F

Wroclaw temperature yesterday

Maximum temperature yesterday: 45 °F (at 12:00 AM)
Minimum temperature yesterday: 37 °F (at 6:30 AM)
Average temperature yesterday: 42 °F

Past Weeks' High & Low Weather Summary

 TemperatureHumidityPressure
High52 °F (Feb 15, 2:30 PM)93% (Feb 14, 1:00 AM)30.72 "Hg (Feb 14, 1:00 AM)
Low23 °F (Feb 19, 5:30 AM)40% (Feb 21, 1:00 PM)29.50 "Hg (Feb 21, 3:00 PM)
Average39 °F75%30.06 "Hg
* Reported Feb 14 1:00 AM — Mar 1 1:30 AM, Wroclaw, Weather by CustomWeather, © 2015

Note: Actual official high and low records may vary slightly from our data, if they occured in-between our weather recording intervals... More about our weather records

Advertising

Wroclaw weather history for previous 24 hours

 ConditionsComfort  
Time TempWeatherWind HumidityBarometerVisibility
1:30 AM
Sun, Mar 1
37 °FClear.7 mph81%30.01 "Hg10 mi
1:00 AM37 °FClear.6 mph87%30.04 "Hg10 mi
12:30 AM39 °FPassing clouds.6 mph81%30.04 "HgN/A
12:00 AM39 °FPassing clouds.2 mph81%30.04 "HgN/A
11:30 PM
Sat, Feb 28
39 °FPartly cloudy.1 mph81%30.07 "HgN/A
11:00 PM39 °FPassing clouds.No wind81%30.07 "HgN/A
10:30 PM41 °FPassing clouds.1 mph76%30.07 "HgN/A
10:00 PM41 °FPassing clouds.2 mph76%30.07 "HgN/A
9:30 PM41 °FPassing clouds.2 mph76%30.09 "HgN/A
9:00 PM41 °FPassing clouds.2 mph76%30.09 "HgN/A
8:30 PM43 °FPassing clouds.3 mph71%30.09 "HgN/A
8:00 PM43 °FPassing clouds.5 mph71%30.09 "HgN/A
7:30 PM43 °FPassing clouds.5 mph66%30.09 "HgN/A
7:00 PM43 °FPassing clouds.2 mph66%30.09 "HgN/A
6:30 PM43 °FPassing clouds.2 mph66%30.09 "HgN/A
6:00 PM43 °FPassing clouds.1 mph66%30.09 "HgN/A
5:30 PM43 °FPassing clouds.1 mph66%30.09 "HgN/A
5:00 PM43 °FPartly sunny.2 mph66%30.09 "HgN/A
4:30 PM43 °FPartly sunny.3 mph66%30.09 "HgN/A
4:00 PM45 °FScattered clouds.7 mph61%30.09 "HgN/A
3:30 PM45 °FScattered clouds.6 mph61%30.09 "HgN/A
3:00 PM45 °FBroken clouds.7 mph61%30.09 "HgN/A
2:30 PM45 °FBroken clouds.7 mph66%30.09 "HgN/A
2:00 PM43 °FPartly sunny.8 mph71%30.09 "HgN/A
1:30 PM43 °FPartly sunny.8 mph71%30.09 "HgN/A
1:00 PM43 °FBroken clouds.9 mph66%30.09 "HgN/A
12:30 PM43 °FPartly sunny.12 mph71%30.12 "HgN/A
12:00 PM43 °FPartly sunny.13 mph71%30.12 "HgN/A
11:30 AM41 °FPartly sunny.16 mph76%30.12 "HgN/A
11:00 AM43 °FPartly sunny.13 mph71%30.09 "HgN/A
10:30 AM41 °FPartly sunny.14 mph76%30.09 "HgN/A
10:00 AM41 °FPartly sunny.13 mph76%30.09 "HgN/A
9:30 AM41 °FBroken clouds.9 mph76%30.09 "HgN/A
9:00 AM39 °FPartly sunny.12 mph81%30.09 "HgN/A
8:30 AM39 °FBroken clouds.9 mph81%30.09 "Hg4 mi
8:00 AM37 °FPartly sunny.14 mph87%30.09 "Hg4 mi
7:30 AM37 °FFog.13 mph87%30.07 "Hg2 mi
7:00 AM37 °FFog.16 mph87%30.07 "Hg2 mi
6:30 AM37 °FFog.15 mph87%30.04 "Hg3 mi
6:00 AM39 °FClear.14 mph81%30.04 "Hg5 mi
5:30 AM43 °FPassing clouds.12 mph71%30.04 "HgN/A
5:00 AM43 °FPassing clouds.7 mph71%30.01 "HgN/A
4:30 AM43 °FPassing clouds.5 mph71%30.01 "HgN/A
4:00 AM43 °FPassing clouds.5 mph76%30.01 "HgN/A
3:30 AM43 °FPassing clouds.6 mph76%30.01 "HgN/A
3:00 AM45 °FPassing clouds.6 mph71%30.01 "HgN/A
2:30 AM45 °FPassing clouds.7 mph71%30.01 "HgN/A
2:00 AM45 °FPassing clouds.6 mph71%30.01 "HgN/A
Weather by CustomWeather, © 2015

See weather overviewHow to use our weather pages